{"data":{"norad_id":67193,"intl_designator":"2025-304B","name":"STARLINK-36279","alt_names":[],"object_type":"PAYLOAD","status":"ACTIVE","operator":null,"country":"US","launch_date":"2025-12-17","launch_site_code":"AFWTR","launch_vehicle":null,"mission":null,"orbit_class":"UNKNOWN","rcs_meters":null,"size_class":null,"mass_kg":null,"dimensions":null,"purposes":["comms"],"wikipedia_slug":null,"has_3d_model":false,"image_url":null,"decayed_at":null,"tle_current":{"epoch":"2026-05-24T23:39:35.864064Z","epoch_age_seconds":73372,"freshness":"FRESH","line1":"1 67193U 25304B   26144.98583176  .00004102  00000+0  35130-3 0  9995","line2":"2 67193  70.0017 342.0655 0002663 266.4256  93.6599 14.98342210 25312","mean_motion":14.9834221,"eccentricity":0.0002663,"inclination_deg":70.0017,"raan_deg":342.0655,"arg_perigee_deg":266.4256,"mean_anomaly_deg":93.6599,"bstar":0.0003513,"rev_number":2531,"period_min":96.106215949159,"perigee_km":570.16730647117,"apogee_km":573.86895909489,"semimajor_km":6950.155132783,"source":"CELESTRAK","updated_at":"2026-05-25T13:38:21.486477Z"}}}